Regional Weather Roundup
Issued by NWS

Home | Current Version | Previous Version | Graphics & Text | Print | Product List | Glossary On
Versions: 1 2 3 4 5 6 7 8 9 10 11 12 13 14 15 16 17 18 19 20 21 22 23 24 25 26 27 28 29 30 31 32 33 34 35 36 37 38 39 40 41 42 43 44 45 46 47 48 49 50
000
ASUS43 KIND 231209
RWRIN

WEATHER ROUNDUP FOR INDIANA
NATIONAL WEATHER SERVICE INDIANAPOLIS IN
800 AM EDT SAT JUL 23 2016

NOTE: "FAIR" INDICATES FEW OR NO CLOUDS BELOW 12,000 FEET WITH NO
SIGNIFICANT WEATHER AND/OR OBSTRUCTIONS TO VISIBILITY.

* - STATION DOES NOT REPORT WEATHER SUCH AS PRECIPITATION OR FOG.

+ - STATION NOT QUALITY CONTROLLED BY THE NATIONAL WEATHER SERVICE.
    USE DATA WITH CAUTION...ESPECIALLY DEWPOINT AND RELATIVE
    HUMIDITY OBSERVATIONS.

INZ001>003-010>013-019-020-231300-
NORTHWEST INDIANA

CITY           SKY/WX    TMP DP  RH WIND       PRES   REMARKS
GARY /AIRPORT/ PTSUNNY   79  79 100 CALM      30.01R
KNOX *+        MOSUNNY   72  72 100 CALM      30.00R
LA PORTE +     SUNNY    N/A N/A N/A CALM      30.01R HAZE
MICHIGAN CITY+ MOSUNNY   73  73 100 CALM      30.01R
MONTICELLO +   SUNNY     73  70  88 CALM      30.00R
6HR MIN TEMP:  70; 6HR MAX TEMP:  73;

RENSSELAER +   SUNNY     72  72 100 CALM      30.01R
VALPARAISO     LGT RAIN  77  74  90 W3        30.01R
6HR MIN TEMP:  74; 6HR MAX TEMP:  77; 6HR PCP: TRACE;


$$

LMZ046-743>745-231300-
SOUTHERN LAKE MICHIGAN

STATION/POSITION TIME  TEMP    WIND        PRES    WAVE
                       AIR SEA DIR/SP/G            HT
                 (UTC) (F)     (DEG/KT/KT) (MB)    (FT)
BURNS HARBOR     1100   78     220/  5/  6 1015.9R
MICHIGAN CITY    1100   76     190/  6/  6   N/A
5NW MICH CITY    1200   76 74  250/  4/  4   N/A     0

$$

INZ004-005-014>016-021>024-231300-
NORTH CENTRAL INDIANA

CITY           SKY/WX    TMP DP  RH WIND       PRES   REMARKS
ELKHART        SUNNY     73  73 100 CALM      30.02  FOG
GOSHEN         FOG       73  70  90 CALM      30.01R VSB 1/2
6HR MIN TEMP:  68; 6HR MAX TEMP:  73;

LOGANSPORT +   MOSUNNY   72  72 100 CALM      30.02R FOG
PERU/GRISSOM   SUNNY     74  74 100 CALM      30.00R
6HR MIN TEMP:  69; 6HR MAX TEMP:  74;

ROCHESTER +    SUNNY     77  77 100 CALM      30.01S
SOUTH BEND     SUNNY     74  73  97 CALM      30.01R
6HR MIN TEMP:  72; 6HR MAX TEMP:  74;

WARSAW +       SUNNY     73  73 100 CALM      30.01S

$$

INZ006>009-017-018-025>027-231300-
NORTHEAST INDIANA

CITY           SKY/WX    TMP DP  RH WIND       PRES   REMARKS
ANGOLA *+        N/A     66  59  77 CALM      30.01R VSB 0
AUBURN +       CLOUDY    73  72  94 NW3       30.02S FOG
FORT WAYNE     MOSUNNY   73  71  93 SW6       30.01S FOG
6HR MIN TEMP:  69; 6HR MAX TEMP:  74;

HUNTINGTON +   SUNNY    N/A N/A N/A SW3       30.01R

$$

INZ028-029-035-036-043>045-051>053-231300-
WEST CENTRAL INDIANA

CITY           SKY/WX    TMP DP  RH WIND       PRES   REMARKS
CRAWFORDSVL +  SUNNY     70  70 100 CALM      30.02S FOG
6HR MIN TEMP:  66; 6HR MAX TEMP:  70;

GREENCASTLE +  MOSUNNY   70  70 100 CALM      30.01F FOG
LAFAYETTE      SUNNY     74  74 100 CALM      30.00R
6HR MIN TEMP:  69; 6HR MAX TEMP:  74;

TERRE HAUTE    MOSUNNY   74  72  93 CALM      30.01S
6HR MIN TEMP:  70; 6HR MAX TEMP:  74;


$$

INZ030>032-037>040-046>048-054>057-064-065-231300-
CENTRAL INDIANA

CITY           SKY/WX    TMP DP  RH WIND       PRES   REMARKS
COLUMBUS       FOG       72  72 100 CALM      30.02S VSB 1/2
FRANKFORT +    CLOUDY   N/A N/A N/A CALM      30.03S HAZE
INDIANAPOLIS   MOSUNNY   76  72  87 CALM      30.02S
6HR MIN TEMP:  72; 6HR MAX TEMP:  76;

-EAGLE CREEK   SUNNY     76  72  87 CALM      30.01F
6HR MIN TEMP:  74; 6HR MAX TEMP:  78;

KOKOMO *+      SUNNY     73  70  88 CALM      30.01S
6HR MIN TEMP:  68; 6HR MAX TEMP:  73;

MARION +       SUNNY     71  71 100 CALM      30.03R FOG
MT COMFORT *+  SUNNY     72  70  94 CALM      30.02F
SHELBYVILLE    SUNNY     74  71  91 CALM      30.02R
6HR MIN TEMP:  70; 6HR MAX TEMP:  75;

ZIONSVILLE +   SUNNY     71  71  99 CALM      30.03S
6HR MIN TEMP:  67; 6HR MAX TEMP:  71;


$$

INZ033-034-041-042-049-050-058-059-231300-
EAST CENTRAL INDIANA

CITY           SKY/WX    TMP DP  RH WIND       PRES   REMARKS
MUNCIE         PTSUNNY   76  72  87 CALM      30.02S
6HR MIN TEMP:  71; 6HR MAX TEMP:  76;


$$

INZ060-061-067>069-081>083-085>088-231300-
SOUTHWEST INDIANA

CITY           SKY/WX    TMP DP  RH WIND       PRES   REMARKS
EVANSVILLE     PTSUNNY   75  72  90 CALM      30.01R
6HR MIN TEMP:  72; 6HR MAX TEMP:  77;

HUNTINGBURG *+ SUNNY     73  70  88 CALM      30.01S
6HR MIN TEMP:  72; 6HR MAX TEMP:  75;

WASHINGTON +   FOG       73  73 100 MISG      30.00S VSB<1/4
6HR MIN TEMP:  72; 6HR MAX TEMP:  74;


$$

INZ062-063-066-070>080-084-089>092-231300-
SOUTH CENTRAL AND SOUTHEAST INDIANA

CITY           SKY/WX    TMP DP  RH WIND       PRES   REMARKS
BLOOMINGTON    FOG       73  72  96 CALM      30.03R VSB 1/4
6HR MIN TEMP:  69; 6HR MAX TEMP:  73;

MADISON *+     MOSUNNY   73  72  94 CALM      30.05R
NORTH VERNON + FOG      N/A N/A N/A CALM      30.04R VSB 1/4

$$




USA.gov is the U.S. government's official web portal to all federal, state and local government web resources and services.